Regional Weather Roundup
Issued by NWS

Home | Current Version | Previous Version | Graphics & Text | Print | Product List | Glossary On
Versions: 1 2 3 4 5 6 7 8 9 10 11 12 13 14 15 16 17 18 19 20 21 22 23 24 25 26 27 28 29 30 31 32 33 34 35 36 37 38 39 40 41 42 43 44 45 46 47 48 49 50
095
ASUS45 KPSR 231910
RWRAZ

ARIZONA HOURLY REGIONAL WEATHER ROUNDUP
NATIONAL WEATHER SERVICE PHOENIX AZ
1200 PM MST MON JAN 23 2017

NOTE: FAIR INDICATES FEW OR NO CLOUDS BELOW 12,000 FEET WITH NO
SIGNIFICANT WEATHER AND/OR OBSTRUCTIONS TO VISIBILITY.

AZZ001>003-036-232000-
NORTHWEST ARIZONA

CITY           SKY/WX    TMP DP  RH WIND       PRES   REMARKS
BULLHEAD CITY  MOSUNNY   61  37  41 S14G25    29.81F
KINGMAN        LGT RAIN  43  34  70 W24       29.81S
$$

AZZ004>008-015-016-018-232000-
NORTH CENTRAL ARIZONA

CITY           SKY/WX    TMP DP  RH WIND       PRES   REMARKS
GRAND CANYON   CLOUDY    33  31  92 SW24G40   29.73F WCI  20
WILLIAMS       LGT SNOW  32  30  93 SW24G33   29.76F WCI  19
PRESCOTT       LGT RAIN  38  36  92 SW18G30   29.84F FOG     WCI  28
FLAGSTAFF      LGT SNOW  31  31 100 SW28G47   29.76F VSB 3/4 WCI  17
PAYSON         LGT RAIN  37  37 100 S12G22    29.89F VSB 3/4 WCI  30
PAGE           PTSUNNY   49  28  44 W10G24    29.66R
$$

AZZ009>014-017-232000-
NORTHEAST ARIZONA

CITY           SKY/WX    TMP DP  RH WIND       PRES   REMARKS
WINSLOW        MOSUNNY   48  35  60 S24G36    29.79F
SAINT JOHNS    SUNNY     53  31  42 SW33G45   29.80F
SHOW LOW       MOSUNNY   37  25  60 S26G33    29.87F WCI  26
$$

AZZ023-232000-
GREATER PHOENIX AREA

CITY           SKY/WX    TMP DP  RH WIND       PRES   REMARKS
PHOENIX        PTSUNNY   59  38  45 CALM      29.87F
BUCKEYE        CLOUDY    57  46  67 SW3       29.89F
GLENDALE       CLOUDY    57  39  51 CALM      29.91F
LUKE AFB       CLOUDY    59  41  51 SW3       29.87F
DEER VALLEY    LGT RAIN  53  48  83 N6        29.89F
SCOTTSDALE     CLOUDY    56  40  55 CALM      29.90F
MESA-FALCON    PTSUNNY  N/A N/A N/A SE12      29.86F
MESA-GATEWAY   CLOUDY    61  45  55 SW18      29.89F
CHANDLER       CLOUDY    63  45  51 S23       29.88F
$$

AZZ027-028-232000-
SOUTHWEST MARICOPA COUNTY AND PINAL COUNTY

CITY           SKY/WX    TMP DP  RH WIND       PRES   REMARKS
CASA GRANDE    CLOUDY    60  47  61 SW20      29.90F
GILA BEND      CLOUDY    63  48  57 SW21G28   29.87F
$$

AZZ503-504-507>509-232000-
SOUTHEAST ARIZONA

CITY           SKY/WX    TMP DP  RH WIND       PRES   REMARKS
TUCSON         CLOUDY    65  39  38 S17       29.93F
DAVIS-MONTHAN  SUNNY     65  39  38 S15       29.91F
RYAN FIELD     SUNNY     66  41  39 SW16G24   29.93F
NOGALES        PTSUNNY   61  39  44 SW20G30   29.99F
SIERRA VISTA   MOSUNNY   60  36  40 SW18G32   29.97F
DOUGLAS        MOSUNNY   62  28  27 SE9G18    29.98F
SAFFORD        SUNNY     61  32  33 E12G20    29.90F
$$

AZZ020-021-025-026-031-232000-
SOUTHWEST ARIZONA

CITY           SKY/WX    TMP DP  RH WIND       PRES   REMARKS
YUMA           PTSUNNY   64  43  46 W13       29.89F
$$

CAZ031-033-041-043-047-048-061-232000-
SOUTHERN CALIFORNIA

CITY           SKY/WX    TMP DP  RH WIND       PRES   REMARKS
DOWNTOWN L.A.  LGT RAIN  54  46  74 W6        29.89F
L.A. AIRPORT   PTSUNNY   55  48  77 W20       29.90F
SAN DIEGO      CLOUDY    57  47  69 SW13      29.98F
BURBANK        RAIN      47  41  80 NW9       29.89F
ONTARIO        TSTM      48  43  82 S7        29.89F
PALM SPRINGS   LGT RAIN  52  45  77 CALM      29.88F
EL CENTRO NAS  PTSUNNY   64  39  39 SW24G32   29.92F
IMPERIAL       SUNNY     63  41  44 W25G35    29.88F
BLYTHE         SUNNY     61  41  47 SW18      29.87F
NEEDLES        SUNNY     62  38  40 SW17G26   29.82F
$$

NVZ020-UTZ003-232000-
SOUTHERN NEVADA-UTAH

CITY           SKY/WX    TMP DP  RH WIND       PRES   REMARKS
LAS VEGAS      MOSUNNY   50  30  46 SW14G26   29.74F
SALT LAKE CITY CLOUDY    39  28  64 S24G35    29.45F WCI  28
$$

NMZ009-TXZ055-232000-
NEW MEXICO-WEST TEXAS

CITY           SKY/WX    TMP DP  RH WIND       PRES   REMARKS
ALBUQUERQUE    MOSUNNY   50  28  42 S18       29.87F
EL PASO        MOSUNNY   57  31  37 S10       29.99F
$$


........................KEY........................
SKY/WX - SKY CONDITION/WEATHER
TMP    - TEMPERATURE IN FAHRENHEIT
DP     - DEW POINT IN FAHRENHEIT
RH     - RELATIVE HUMIDITY IN PERCENT
WIND   - DIRECTION AND SPEED IN MILES PER HOUR (MPH)
VRB    - VARIABLE WIND DIRECTION
PRES   - MEAN SEA LEVEL PRESSURE IN INCHES OF MERCURY
         F - FALLING PRESSURE   R - RISING PRESSURE
         S - STEADY PRESSURE
VSB    - VISIBILITY IN MILES
HX     - HEAT INDEX IN FAHRENHEIT
WCI    - WIND CHILL INDEX IN FAHRENHEIT
TC     - TEMPERATURE IN CELSIUS WHICH IS ALSO KNOWN AS
         TEMPERATURE IN CENTIGRADE
AFB    - AIR FORCE BASE
         LUKE AFB IS LUKE AIR FORCE BASE
         DAVIS-MONTHAN IS DAVIS-MONTHAN AIR FORCE BASE
NAS    - NAVAL AIR STATION
         EL CENTRO NAS IS EL CENTRO NAVAL AIR STATION
N/A    - NOT AVAILABLE





USA.gov is the U.S. government's official web portal to all federal, state and local government web resources and services.